Powrót do katalogu

STARLINK-6159

AktywnyŁącznośćVLEO
NORAD 56381·PAYLOAD·🇺🇸 United States

Wystrzelony May 4, 2023 z Cape Canaveral Space Force Station

Loading…

Następne Przeloty (najbliższe 24 godziny)

TLE

ŚwieżeSource: CelesTrak SupGP

Epoka: Sep 14, 2026, 13:44 UTC

1 56381C 23061H   26257.57270833 -.00037517  00000+0 -13589-2 0  2571
2 56381  43.0000 211.4888 0000791 258.2952  90.0061 15.27596394    12

Śledź STARLINK-6159 w czasie rzeczywistym z AllMySat

Download on the App Store